Location: Aranbee
(34.0885°N, 118.2342°W)
Time: 17:19:05
(UTC+00:00)

A-11 Canister half - Pass Details

Date: 07 August 2021
Orbit: 1514 x 1685 km, 47.2° (Epoch: 17 September)

Event Time Altitude Azimuth Distance (km) Brightness Sun altitude
Rises 05:01:17 0° 305° (NW) 4,885 13.0 -24.2°
Reaches altitude 10° 05:04:25 10° 307° (NW) 3,913 12.2 -24.7°
Maximum altitude 05:14:33 77° 34° (NNE) 1,722 9.1 -26.2°
Enters shadow 05:18:44 42° 111° (ESE) 2,264 9.4 -26.8°
